Wind_Speed
10 9 10 10 10 10 10 10 11 11 11 11 11 12 11 10 10 10 11 11 11 11 11 11 11 11 11 11 12 12 12 13 13 13 14 15 15 15 15 17 17 17 17 19 19 19 20 21 22 22 22 22 22 22 23 22 21 21 20 20 21 20 22 19 10 10 18 20 20 24 25 25 24 21 17 12 10 12 13 15 18 21 25 29 34
9 9 10 10 10 10 11 12 12 12 12 12 12 12 11 10 10 10 11 12 12 11 10 10 10 10 10 11 12 12 12 13 13 14 14 15 15 14 15 16 17 17 18 19 19 20 20 21 22 23 23 22 22 22 24 23 22 22 22 20 21 21 22 22 15 10 15 21 23 26 28 26 25 25 22 18 15 12 11 13 17 22 25 28 32
9 9 10 10 10 11 13 14 13 13 13 13 12 12 11 11 11 11 11 11 11 11 10 10 9 11 12 12 11 12 12 13 13 14 14 14 15 15 15 15 16 17 17 17 18 19 20 22 23 23 23 23 22 22 24 24 22 22 22 21 20 20 21 21 17 13 13 17 22 26 28 28 28 28 25 21 18 16 14 13 13 17 23 27 30
9 10 10 11 11 13 15 15 14 14 13 13 12 12 12 12 12 11 11 11 11 10 10 11 10 12 13 12 11 12 12 12 13 14 14 14 14 14 15 15 15 16 16 16 17 18 19 21 22 23 23 24 23 22 24 25 23 22 22 22 20 19 20 20 18 16 14 15 18 21 23 25 26 30 29 25 22 20 17 17 16 15 17 24 31
10 11 11 12 13 15 16 15 14 14 13 13 12 12 12 12 12 12 11 11 11 10 11 12 11 11 11 11 11 11 11 11 12 13 14 14 14 14 14 14 15 15 15 16 16 17 17 19 21 23 23 24 25 24 24 25 24 23 23 22 21 19 19 19 19 18 16 15 17 18 21 22 23 27 31 29 26 24 22 21 21 20 19 17 24
10 11 13 14 15 16 16 15 14 14 13 13 13 12 12 12 12 12 11 11 12 12 11 12 12 11 12 13 12 11 11 11 12 14 13 13 14 13 13 13 14 14 15 15 16 16 16 17 19 21 22 22 24 25 25 25 25 26 24 23 22 21 20 19 19 19 18 17 17 18 20 22 22 25 28 27 23 22 24 25 24 25 24 20 16
11 12 14 15 16 16 15 14 13 13 13 13 12 12 12 12 13 12 12 12 12 12 12 12 13 12 12 13 13 13 13 12 12 14 14 13 13 13 13 13 13 14 15 15 15 15 16 16 17 18 19 20 22 24 25 24 24 26 26 24 23 21 20 20 20 19 19 19 19 19 20 21 22 23 25 26 23 22 24 24 24 27 28 23 18
12 14 15 16 16 16 15 14 13 13 14 13 13 12 13 13 13 13 13 13 13 13 13 13 13 13 13 14 14 14 15 14 14 15 14 13 13 13 14 14 13 14 14 15 15 15 15 16 16 15 16 19 21 24 25 24 23 26 28 26 24 22 20 20 20 19 19 19 20 20 21 21 23 25 26 28 28 27 27 23 20 25 28 25 21
13 14 15 15 17 17 16 14 14 14 14 14 13 13 13 13 13 13 13 13 13 13 13 13 13 14 14 14 15 16 17 17 16 15 15 14 13 13 14 14 14 14 14 14 15 16 15 15 15 16 16 17 19 21 23 24 23 24 27 28 26 24 22 20 21 21 20 20 21 21 22 22 25 27 27 28 27 25 25 23 20 23 26 24 22
14 15 14 15 17 17 15 15 15 15 15 14 14 14 14 14 14 14 14 14 14 13 13 13 13 14 14 15 15 17 18 17 16 15 15 15 13 13 14 14 14 14 14 14 15 16 16 15 15 16 17 16 16 17 17 20 23 22 25 29 28 26 25 22 21 21 20 20 21 22 22 22 25 27 26 26 26 24 24 22 21 23 24 22 21
15 15 15 16 16 16 16 16 16 16 15 14 14 14 14 14 14 14 15 14 14 13 13 13 13 14 14 15 15 16 17 17 17 17 17 16 15 14 14 15 15 15 15 15 15 16 16 17 16 15 17 17 16 16 13 14 20 20 21 28 29 28 27 24 22 22 21 20 21 23 23 23 25 26 26 27 26 24 23 22 21 22 21 19 16
16 16 17 17 17 16 16 17 17 16 16 15 14 15 14 14 14 15 15 15 14 13 13 13 14 14 14 15 15 15 16 17 17 17 17 17 16 15 15 16 16 16 16 15 16 17 17 18 17 16 18 18 18 18 13 9 15 18 17 22 27 27 26 24 22 21 21 20 21 23 24 24 26 28 30 29 27 24 23 22 22 22 20 17 15
17 18 18 18 17 17 17 17 17 16 16 15 15 15 15 15 15 16 16 15 14 14 14 14 14 14 14 15 14 14 16 17 16 17 16 16 16 15 15 16 17 17 17 16 16 17 17 18 18 18 19 19 20 21 17 11 13 17 16 18 22 23 23 24 23 23 22 21 22 23 23 23 26 29 31 31 28 24 23 23 24 23 21 18 18
18 19 19 18 18 17 17 17 17 17 16 16 16 16 16 16 16 16 16 15 14 14 14 14 14 14 14 13 13 13 13 14 13 14 15 15 15 14 13 15 17 19 19 18 17 17 17 18 19 19 19 20 20 22 20 16 14 15 16 16 18 19 18 20 22 22 22 22 23 22 20 20 22 26 29 32 29 25 24 24 25 24 22 19 18
18 19 19 19 18 18 18 18 17 17 17 16 16 16 16 16 16 16 16 15 14 14 14 14 14 14 13 12 12 11 10 9 10 11 11 12 13 13 12 13 15 17 19 20 20 19 18 17 18 19 20 20 20 19 20 18 15 14 16 17 18 17 15 17 22 22 21 21 21 22 20 18 21 26 30 33 30 26 23 22 23 23 22 20 21
19 19 19 19 18 18 18 18 18 18 17 17 16 16 16 16 16 16 16 14 13 13 13 13 13 13 13 12 11 11 8 7 8 9 9 10 11 12 12 12 13 14 16 19 21 22 21 19 18 19 20 21 20 19 19 19 16 15 16 16 18 19 15 14 19 23 23 21 21 23 23 21 22 28 32 33 32 28 24 24 25 26 24 21 22
19 20 19 19 18 18 18 19 19 18 18 17 16 15 15 16 16 16 15 14 13 13 13 13 13 13 13 12 11 11 9 7 7 9 9 9 10 10 10 11 12 13 14 15 18 21 23 22 20 21 22 22 20 19 20 20 17 16 17 16 18 20 19 15 15 20 24 23 22 24 25 22 22 26 31 34 33 30 28 28 28 27 25 20 19
20 20 19 19 19 18 18 19 19 19 17 16 15 15 15 16 16 16 15 14 13 13 13 13 14 14 14 13 12 12 11 7 7 8 8 9 11 10 9 9 10 11 12 13 14 17 20 21 22 22 23 23 22 21 22 21 19 17 17 17 17 20 21 19 18 20 23 23 22 23 25 24 22 25 30 33 32 31 30 29 27 26 24 20 19
20 20 20 20 19 19 18 18 18 18 17 16 15 15 15 16 17 16 15 14 14 13 13 13 14 13 13 13 12 12 12 10 8 7 7 9 11 10 9 9 10 10 11 12 13 14 16 18 21 22 23 23 23 23 24 23 20 18 18 17 17 18 19 19 19 20 20 22 23 22 23 24 24 25 28 30 30 30 30 27 26 27 25 23 23
21 20 20 20 19 19 18 18 18 17 16 16 15 14 15 16 16 15 14 13 13 13 13 13 13 13 12 11 12 12 12 12 11 9 7 9 11 11 9 9 10 10 10 11 12 12 13 15 19 22 24 24 24 25 25 24 22 20 20 19 18 19 18 17 18 18 19 21 22 22 22 24 25 25 27 28 28 29 29 27 27 28 26 25 26
21 21 20 20 20 19 18 17 17 17 16 16 14 14 15 16 15 14 14 14 14 14 13 14 14 13 12 12 13 13 13 13 13 12 10 8 10 12 11 10 10 10 10 11 12 12 13 13 17 22 25 26 26 26 27 26 23 22 22 22 20 18 17 16 16 17 18 20 21 22 22 23 24 25 27 28 27 28 28 27 27 28 28 27 26
22 21 21 20 19 19 18 17 17 16 15 15 14 14 15 15 15 14 14 14 14 13 13 13 13 13 12 12 13 13 14 15 15 14 13 10 11 13 13 12 11 10 10 11 11 12 12 12 15 20 22 23 25 25 26 27 25 24 24 23 21 19 17 16 16 17 18 19 20 21 22 23 24 25 27 27 27 27 27 27 27 27 27 27 26
22 21 21 20 19 18 18 17 16 16 15 14 14 15 16 15 14 14 14 14 13 13 12 12 12 12 12 12 12 12 13 16 17 16 14 12 11 12 13 13 13 12 11 11 11 11 11 12 14 16 17 18 20 22 23 24 24 25 24 22 21 20 17 17 17 17 17 18 19 21 22 23 24 25 25 26 27 27 27 27 27 26 25 27 28
22 21 20 19 19 18 17 16 16 15 14 14 15 16 16 15 14 14 13 13 12 12 12 11 11 11 11 11 11 11 11 15 18 18 16 14 13 13 13 14 14 13 12 12 12 12 11 12 13 15 16 16 16 18 19 19 21 23 23 22 21 20 19 18 18 17 18 18 19 20 21 22 23 23 24 25 25 25 25 25 27 27 25 25 28
22 21 19 18 18 17 17 16 16 15 14 14 15 16 15 14 13 12 11 11 11 11 11 11 10 11 11 10 10 10 10 11 14 16 16 16 17 16 16 15 14 14 14 13 13 13 13 13 13 13 14 14 14 15 17 18 18 19 21 21 21 21 20 19 18 18 18 18 19 20 20 20 22 22 21 23 24 24 24 24 25 26 26 25 26
21 20 19 18 17 17 17 16 15 14 13 14 14 14 13 12 12 11 10 10 10 10 10 11 11 10 10 10 10 9 8 8 7 7 8 10 11 11 12 12 11 11 12 11 11 12 12 12 12 12 12 12 12 13 15 18 18 17 18 19 20 21 21 20 19 18 18 18 19 19 19 19 20 20 20 21 23 24 23 23 24 25 26 27 26
20 20 20 20 18 17 17 16 15 14 14 13 13 12 12 12 11 10 9 9 10 10 10 10 10 10 10 9 9 8 7 7 5 3 2 3 4 4 5 6 5 4 6 7 8 8 9 10 10 11 12 11 11 11 12 15 17 17 17 17 18 19 20 20 20 18 18 18 18 18 18 18 18 19 20 20 21 23 23 22 22 22 24 25 25
21 21 21 19 18 18 17 16 15 15 13 13 12 10 10 10 10 9 8 7 8 9 11 10 10 10 10 9 9 9 8 6 5 4 3 3 3 3 3 4 5 4 5 6 5 6 7 9 9 10 11 11 11 11 12 13 15 16 17 17 17 17 18 18 19 19 18 18 17 18 18 18 18 19 20 20 20 21 22 22 21 21 22 22 21
22 22 20 18 18 18 16 15 15 14 14 15 14 12 10 11 11 11 10 8 7 9 11 10 9 9 10 9 9 9 9 8 7 6 4 3 3 4 4 4 6 7 7 8 7 6 7 8 9 9 10 11 11 11 12 12 13 14 15 16 16 17 17 17 18 19 19 18 18 18 18 18 18 18 19 19 19 19 20 21 21 21 21 21 20
22 21 19 18 18 17 15 14 14 13 14 15 16 16 15 14 13 12 11 10 9 11 13 12 10 11 12 12 11 12 12 11 10 9 7 6 6 6 7 7 8 9 8 9 9 7 7 8 9 9 10 11 11 11 11 12 12 13 13 14 15 16 16 17 17 17 18 18 18 18 17 17 17 17 18 18 18 18 19 19 20 20 20 21 20
21 20 19 19 18 16 14 14 14 14 14 15 14 15 16 15 14 12 11 10 10 12 13 12 12 14 15 14 14 14 14 13 12 10 10 9 8 9 10 11 11 10 9 8 7 6 7 7 8 8 9 10 10 10 11 11 11 12 12 13 13 14 15 16 16 16 16 17 17 17 17 17 17 17 17 17 17 17 17 17 18 18 19 19 19
21 20 19 19 18 16 15 15 14 14 15 15 14 14 15 16 15 14 12 11 12 13 13 14 15 17 17 16 15 15 14 13 12 11 10 10 10 10 11 11 10 10 9 7 6 5 6 6 7 7 8 9 9 10 10 10 11 11 11 11 12 13 13 14 14 15 16 16 16 17 17 17 16 16 16 16 16 16 17 16 16 16 16 16 16
20 20 20 19 18 16 15 15 15 15 16 15 15 15 15 15 15 15 14 14 14 15 15 15 16 17 16 15 14 14 14 13 12 12 12 12 12 12 12 11 10 8 7 6 5 5 6 6 6 7 7 8 8 9 9 9 10 10 11 11 11 12 12 12 12 13 14 15 15 16 16 16 16 15 16 16 15 15 16 16 16 15 14 15 15
19 20 21 20 18 16 16 16 15 15 15 15 15 15 14 15 16 16 15 15 14 14 14 14 14 14 14 14 13 13 13 12 12 12 12 11 10 9 8 8 8 8 7 5 5 5 5 5 6 6 6 7 7 8 8 9 9 9 10 11 11 11 11 12 11 12 12 13 14 15 15 16 16 15 15 16 15 15 15 15 16 16 15 14 15
19 20 21 19 17 16 16 16 16 15 15 15 15 14 15 15 16 15 15 14 14 13 12 12 12 13 13 13 12 11 11 10 10 9 8 7 6 4 2 1 2 4 5 5 5 5 5 5 5 5 5 6 6 7 7 8 8 9 9 10 10 10 10 11 11 11 11 11 12 13 14 14 15 15 14 14 15 15 14 14 14 15 15 14 14
19 21 21 18 16 16 16 16 16 15 15 15 14 15 15 16 15 15 14 14 14 14 13 12 11 12 12 11 11 10 9 8 7 6 6 5 3 2 4 3 2 3 4 4 4 4 4 4 4 4 5 5 5 6 6 7 7 8 8 8 9 9 9 10 10 11 11 10 11 12 12 12 13 13 13 13 14 14 14 14 13 13 14 15 14
19 21 20 18 16 16 16 15 15 15 15 15 15 15 16 15 15 15 14 14 14 14 14 13 13 12 10 9 10 9 8 7 6 5 5 4 1 4 5 1 2 3 3 3 3 2 3 3 3 3 4 4 5 5 5 6 6 6 7 7 7 8 8 8 9 10 11 10 9 10 10 11 11 12 12 12 13 13 13 14 13 12 12 14 14
19 20 19 18 17 17 16 15 16 16 15 14 15 15 15 15 14 14 14 14 14 14 14 14 13 12 11 11 10 9 7 6 6 4 3 2 1 3 1 2 2 1 2 2 1 1 2 2 2 3 3 3 4 4 4 5 5 6 6 5 6 7 8 7 7 9 9 9 9 9 10 10 10 11 11 11 11 12 12 12 12 12 12 12 12
18 19 19 19 18 17 16 16 17 17 15 14 15 15 15 14 14 14 13 14 13 13 13 13 12 11 12 13 12 10 9 8 7 7 6 5 4 2 2 2 2 1 1 2 1 1 1 1 1 1 2 2 3 3 3 4 4 5 5 5 5 6 7 7 7 8 8 9 9 9 9 9 10 10 10 10 10 11 11 10 10 11 11 11 10
18 19 20 19 17 16 16 17 17 16 15 14 15 15 15 14 14 13 13 14 13 12 12 12 11 11 12 13 13 12 10 9 8 8 6 5 4 3 3 3 3 2 2 2 2 2 2 1 1 0 1 1 1 2 3 3 3 4 4 5 5 5 6 6 7 7 7 8 9 9 9 9 9 9 9 9 10 10 10 10 9 9 9 10 10
18 20 21 19 16 16 17 17 17 15 14 14 15 15 15 14 13 13 13 13 12 11 11 11 10 10 13 14 14 13 9 7 7 7 6 5 5 5 4 4 4 4 4 4 4 3 3 2 2 1 1 1 1 1 1 2 2 2 3 4 5 5 4 5 6 7 7 7 7 8 8 8 9 9 8 9 9 9 9 9 10 9 8 8 9
20 21 20 17 16 16 17 17 16 15 14 14 14 15 15 14 13 12 13 13 12 11 11 10 9 10 13 14 14 14 11 7 5 6 6 6 6 6 6 5 5 5 5 5 5 4 4 4 3 3 3 2 2 2 2 2 2 2 2 2 3 4 4 4 5 6 6 5 6 7 8 8 8 8 7 8 9 9 8 8 9 10 9 8 8
21 21 19 17 16 16 16 16 15 15 14 14 14 15 14 14 13 12 12 12 12 11 11 10 9 11 12 11 12 13 12 10 7 7 7 7 7 7 7 7 7 7 7 6 6 6 5 5 5 5 5 4 4 4 4 3 3 3 3 3 2 3 3 3 4 5 5 5 5 6 7 7 7 7 7 7 8 8 8 8 8 9 9 9 9
20 20 18 16 16 15 15 15 15 14 14 14 14 14 14 13 13 12 12 12 12 11 11 11 10 11 13 12 11 11 12 12 10 9 9 8 8 8 8 8 8 8 8 7 7 7 7 7 7 7 6 6 5 6 6 5 5 5 4 4 4 4 3 3 3 4 4 5 6 6 6 6 7 6 6 7 7 7 8 7 7 8 9 9 9
20 19 17 16 16 15 15 15 14 14 14 14 13 14 14 13 12 12 13 13 12 12 12 11 10 10 12 14 14 13 13 13 12 11 10 10 9 9 9 9 9 9 9 9 9 9 9 9 9 8 8 8 8 8 8 7 7 7 7 6 6 6 5 4 3 3 4 5 5 6 6 6 6 6 6 7 7 7 7 7 7 8 8 8 9
19 18 17 17 16 15 15 15 14 14 15 14 13 14 14 14 13 13 13 13 13 13 13 12 11 11 11 12 12 13 12 12 12 11 11 10 11 11 11 11 11 11 11 11 10 10 10 10 10 10 10 10 10 10 10 9 9 9 9 9 9 8 7 6 5 5 4 4 5 5 6 6 6 6 7 7 7 6 6 7 7 7 7 8 8
17 17 17 17 16 15 15 15 15 14 15 15 14 14 14 14 13 13 13 13 13 13 13 13 12 12 12 12 12 12 12 12 12 12 12 12 12 12 12 12 12 11 11 11 11 12 12 12 13 13 12 12 12 12 11 11 12 11 11 11 11 10 10 8 7 6 6 6 6 5 6 6 6 6 6 7 7 7 7 7 7 7 7 8 8
16 16 16 16 16 15 15 15 15 15 15 15 14 14 14 14 14 13 13 14 14 13 13 13 12 12 12 13 13 12 12 12 12 12 12 13 13 13 13 13 13 13 13 13 13 13 13 13 14 14 14 15 15 15 14 14 13 13 13 13 13 13 13 13 11 8 7 8 8 7 7 8 8 8 7 7 7 8 8 8 8 8 8 8 8
15 14 15 16 15 15 15 15 15 14 14 14 14 14 13 14 14 14 14 14 14 14 14 14 13 12 12 12 12 12 13 12 13 13 13 13 13 13 13 14 14 14 14 14 14 15 15 15 15 16 15 15 16 16 16 16 16 15 15 15 15 15 17 17 16 14 13 12 11 10 10 10 10 10 9 9 9 9 9 9 9 8 9 9 9
14 13 14 15 15 14 15 14 14 15 14 14 14 14 14 14 14 14 14 14 14 15 15 15 14 14 14 13 13 13 13 12 12 12 13 13 13 13 14 14 14 15 15 16 16 16 16 16 17 18 18 18 18 18 17 17 18 18 17 17 17 19 20 20 20 20 20 18 15 13 13 13 13 12 12 11 11 11 11 11 10 10 10 11 11
13 13 14 15 15 15 15 15 15 15 15 14 14 14 15 15 14 14 14 14 14 14 14 15 15 15 14 14 14 13 13 13 13 13 13 13 14 14 14 15 15 15 16 16 16 16 17 17 17 18 19 20 21 21 21 20 20 21 21 20 21 22 22 23 24 24 22 20 19 18 17 16 16 16 16 15 13 13 12 12 12 12 12 12 12
Wind_Direction
119 119 118 119 117 115 113 111 111 110 104 98 93 90 88 84 82 80 75 71 68 66 64 60 55 50 44 38 35 33 31 30 28 28 29 29 31 30 27 28 29 28 25 24 23 20 15 14 14 11 9 8 5 5 4 2 2 1 1 359 354 352 350 348 345 341 349 359 4 5 6 6 7 5 350 326 301 283 264 249 246 243 241 240 236
123 122 122 121 117 118 120 117 113 109 103 98 94 91 89 87 85 81 78 74 71 69 65 59 54 50 46 41 35 33 33 34 33 34 33 32 33 32 30 29 28 28 28 25 23 21 18 17 16 13 11 9 9 9 7 5 6 6 6 5 359 358 3 3 359 351 358 7 11 12 14 17 13 8 5 358 344 327 303 277 257 246 243 240 237
127 127 128 124 121 124 124 120 114 110 106 99 94 91 90 88 85 83 82 77 74 72 65 60 53 47 50 48 38 38 40 39 39 38 37 36 34 33 33 31 30 29 29 26 23 23 22 21 20 15 12 12 11 11 9 7 7 10 11 10 5 5 12 14 9 4 6 11 14 13 14 18 18 11 9 6 359 353 346 327 294 267 254 244 238
131 133 130 126 126 126 124 120 116 112 106 98 96 95 92 90 87 85 85 80 78 72 60 59 55 47 50 50 44 45 45 41 42 40 37 35 32 33 33 31 32 32 30 29 28 25 24 24 23 19 17 17 14 10 9 8 8 9 10 10 10 11 15 18 17 15 13 11 14 14 12 13 14 13 13 12 8 3 358 353 344 321 288 260 247
134 135 132 129 129 127 124 120 116 111 105 99 99 99 95 92 90 87 86 82 78 71 61 60 59 51 50 52 49 46 41 38 39 37 35 34 30 31 32 31 32 31 31 34 34 31 29 29 25 23 22 22 19 14 11 10 10 8 6 7 8 8 12 17 17 16 16 14 12 12 12 11 9 11 13 11 6 4 0 357 358 354 341 303 263
138 139 139 137 133 129 126 121 115 111 106 103 102 101 98 95 93 90 88 85 80 77 72 67 64 58 54 52 49 41 35 33 31 29 32 34 32 31 31 33 35 33 33 36 37 36 33 32 29 27 27 26 24 21 16 14 14 11 7 4 4 5 7 11 14 15 15 13 9 7 10 10 6 4 7 5 3 3 358 355 355 355 354 343 305
142 142 143 141 136 131 126 120 115 111 106 106 106 103 100 98 96 94 92 89 85 80 77 72 67 64 59 54 49 43 39 41 42 38 35 33 35 35 32 34 37 37 36 36 38 39 37 33 29 26 27 27 26 24 22 19 17 14 11 5 4 6 7 9 11 14 16 12 9 8 7 8 6 359 357 359 2 6 2 354 349 349 351 349 335
146 146 146 143 138 133 127 119 115 111 108 108 108 106 104 101 100 99 96 91 87 82 79 75 70 66 62 56 52 50 50 53 56 51 40 34 37 39 35 35 37 40 41 37 36 37 37 34 31 26 23 25 28 28 27 26 23 20 16 11 8 9 10 12 11 12 16 15 10 8 5 5 6 0 358 1 0 358 356 350 344 345 347 348 347
149 148 146 143 139 134 127 120 116 113 111 111 111 109 107 106 104 102 98 93 88 84 81 77 73 69 65 60 56 56 57 57 57 52 45 41 42 43 42 40 40 42 42 39 37 35 34 33 32 27 20 18 23 26 30 33 33 30 27 21 17 15 14 16 16 13 15 16 13 10 8 8 6 2 360 1 356 347 345 347 346 346 344 345 352
151 149 146 143 141 134 126 122 119 116 115 115 115 113 110 110 107 103 100 95 89 86 83 78 75 71 68 63 59 59 62 62 63 62 57 54 50 47 45 43 43 42 39 38 36 33 31 30 28 26 22 16 12 12 21 32 32 31 35 32 27 26 22 19 20 18 16 18 17 12 10 10 7 4 358 354 350 345 346 348 348 346 345 345 349
150 149 147 144 140 134 127 125 122 120 120 119 119 118 115 112 109 104 100 95 90 88 85 80 77 74 70 66 61 61 65 69 71 69 66 63 58 51 47 45 43 41 39 37 35 31 29 26 23 23 21 17 12 3 0 23 27 24 33 38 35 33 30 25 21 21 20 21 20 17 15 10 7 5 359 353 350 348 349 350 349 348 345 342 345
150 148 146 143 139 134 130 127 125 124 125 124 122 121 118 115 110 105 100 96 93 90 86 82 80 76 73 70 64 62 68 73 74 70 67 65 62 56 51 48 44 41 39 38 35 31 28 25 24 23 19 17 18 10 355 6 27 21 25 38 37 34 34 33 28 23 22 22 20 20 18 12 8 7 4 358 353 351 351 352 353 351 341 340 5
152 149 146 143 140 136 133 130 129 128 127 127 126 123 120 116 111 104 100 98 95 92 88 85 82 78 75 72 67 65 71 74 72 69 67 66 65 62 56 52 49 45 41 39 35 32 29 26 24 23 20 18 21 20 11 9 26 25 22 31 34 30 32 37 37 32 28 24 22 23 19 14 12 11 8 5 359 356 357 356 355 352 341 346 19
152 149 146 144 141 138 135 133 131 130 129 129 128 125 122 117 111 106 103 101 97 93 89 86 82 79 77 74 68 68 73 74 71 69 69 67 66 64 60 57 54 49 45 41 37 33 30 27 27 23 20 21 22 22 19 17 23 29 26 26 29 28 32 39 39 36 33 29 26 24 18 16 19 17 13 12 7 2 1 360 357 354 348 351 8
151 149 146 143 141 139 137 134 131 131 132 131 129 127 123 118 112 108 105 102 99 95 90 86 83 79 77 75 69 63 66 73 70 67 70 72 70 66 62 60 58 53 49 45 40 37 33 29 28 25 21 22 24 24 23 21 21 28 30 29 28 27 31 43 43 39 35 33 31 26 18 20 29 27 20 17 13 9 6 5 3 359 358 360 3
148 147 145 144 143 141 139 136 133 133 134 133 131 128 124 118 112 108 105 102 99 96 92 87 84 80 76 75 68 59 58 73 74 67 70 73 72 69 65 62 60 56 53 50 45 42 41 37 32 26 22 24 28 30 30 28 26 27 29 30 31 27 26 38 45 42 39 36 35 30 22 22 32 33 26 20 17 15 13 13 12 9 8 8 5
148 146 144 143 142 142 140 137 136 136 135 133 130 127 122 116 112 108 106 103 100 98 94 88 84 81 76 73 68 58 55 70 75 70 72 67 62 67 69 66 65 61 57 54 50 45 44 44 41 35 30 29 32 35 37 34 29 29 29 29 32 32 27 25 34 39 38 35 34 32 25 23 30 33 29 24 21 20 19 17 15 12 11 11 5
147 145 143 142 142 141 140 139 137 136 134 131 128 125 121 115 112 109 108 106 104 100 97 92 86 83 76 71 68 60 55 67 77 71 71 66 61 67 72 67 66 65 61 59 55 50 45 44 46 45 40 37 38 40 42 38 30 27 28 27 29 31 27 23 25 30 32 29 29 30 26 24 29 31 29 26 25 26 25 22 17 14 14 15 5
147 145 143 142 141 140 139 139 138 135 132 129 126 124 121 115 112 111 110 109 107 103 101 98 91 86 79 71 67 60 54 60 72 75 72 68 64 66 72 70 66 64 64 61 57 54 47 44 48 50 48 45 44 44 44 40 32 26 25 26 23 17 16 21 24 26 28 28 26 27 25 24 27 28 27 28 28 29 29 26 22 19 18 15 7
146 144 142 141 140 139 139 138 135 133 130 127 126 125 121 116 113 115 114 112 110 106 102 100 94 89 83 73 67 63 56 53 60 73 79 73 67 66 67 65 63 62 62 61 58 55 50 45 47 51 51 49 47 45 43 40 34 27 23 21 14 7 10 20 23 24 29 30 27 27 26 24 24 25 26 28 29 30 31 31 29 25 21 17 12
145 144 142 141 140 138 138 134 131 129 127 126 128 126 120 116 114 115 114 111 111 110 106 104 98 92 86 77 71 70 68 61 60 66 73 78 77 73 62 51 55 65 66 62 58 56 54 48 47 51 53 49 46 44 42 39 35 30 25 21 15 14 20 23 21 24 31 32 29 28 27 25 25 25 25 27 29 31 31 32 32 29 25 21 16
144 143 141 140 139 135 132 129 127 126 126 129 130 123 116 115 114 116 116 115 115 116 113 110 106 100 94 84 74 70 70 70 68 66 69 77 85 84 74 64 63 69 69 65 62 61 58 54 50 50 49 44 41 39 39 37 34 31 29 26 23 25 29 27 22 26 31 31 31 31 28 26 25 25 25 27 31 33 32 32 33 33 30 26 22
142 141 140 138 135 130 128 127 127 127 130 133 129 120 115 116 116 118 120 120 120 121 119 117 114 109 103 95 85 76 68 68 69 68 68 74 83 88 87 81 76 74 72 69 66 64 59 53 48 45 40 34 31 30 31 33 33 30 29 27 26 27 30 29 26 27 29 30 32 32 29 26 26 26 25 26 30 34 34 33 34 34 32 30 28
141 140 138 134 130 127 128 128 126 128 133 133 124 117 117 119 122 125 128 128 128 128 126 125 122 116 112 106 99 91 80 71 67 66 68 75 82 86 88 86 80 74 73 72 69 67 63 54 46 40 35 31 28 24 22 25 29 30 29 28 28 29 29 29 26 25 27 29 31 33 29 24 25 27 24 23 28 32 34 35 36 35 34 33 32
136 133 132 129 129 130 129 127 128 132 136 130 122 120 123 126 129 132 135 136 136 134 132 128 123 119 117 115 111 108 101 87 72 64 65 69 70 70 72 76 78 79 80 79 73 65 57 48 39 33 30 30 30 26 23 22 25 29 29 29 30 30 28 28 27 26 26 26 28 33 31 24 24 26 24 24 27 29 31 34 37 36 34 33 35
131 131 132 131 131 131 130 130 133 136 134 127 122 124 127 131 134 137 139 139 136 135 132 129 126 121 118 119 121 120 119 114 100 79 66 60 53 48 49 54 64 75 76 67 53 43 36 32 30 26 23 25 28 27 25 23 24 27 29 30 32 31 29 27 26 26 26 23 22 27 30 27 25 25 25 26 27 27 29 31 35 38 36 33 35
134 134 134 134 134 133 132 135 138 137 132 127 125 127 132 135 133 131 133 137 138 136 133 128 126 124 122 122 123 120 116 113 105 93 85 63 42 40 40 32 30 46 53 42 27 16 13 15 22 25 21 20 25 28 25 24 26 27 27 29 30 31 30 29 27 27 27 25 21 21 24 26 25 25 28 30 27 26 28 30 35 38 38 36 38
136 134 135 136 136 134 137 143 143 137 127 118 113 120 134 133 117 98 94 107 128 139 139 133 130 129 127 126 126 118 104 89 76 72 80 68 52 63 65 39 28 41 57 49 25 6 11 17 21 26 25 23 26 28 24 25 28 27 26 27 27 28 28 29 29 27 25 25 23 20 20 23 24 24 28 32 30 26 25 28 33 36 36 39 44
134 135 136 135 134 136 144 151 146 133 117 103 94 94 106 115 109 97 89 87 101 122 125 120 119 119 111 108 118 118 104 94 102 115 117 107 89 93 98 82 73 77 73 56 31 16 27 33 29 29 29 26 25 25 23 23 25 26 26 26 26 25 25 27 28 26 23 23 23 21 21 23 24 24 25 29 32 32 28 27 31 33 33 39 48
133 133 134 133 135 142 149 150 142 131 120 111 101 93 95 106 115 114 107 98 101 115 116 108 107 112 106 99 110 121 118 114 120 123 121 119 114 111 115 114 104 93 78 59 45 39 40 37 32 33 32 28 24 23 22 21 21 23 25 25 25 25 24 24 25 23 22 23 22 19 19 22 24 24 24 25 28 33 35 32 30 31 32 34 39
132 132 134 137 142 148 151 146 140 135 132 129 119 107 102 104 109 114 118 117 117 122 124 120 120 123 120 113 114 120 122 122 121 118 114 111 107 106 107 104 94 82 64 47 42 47 48 41 36 35 34 32 26 22 22 22 19 20 23 22 23 24 22 22 22 21 21 23 22 19 18 21 24 24 23 24 25 28 34 36 34 33 34 31 29
138 138 140 144 149 152 151 147 144 141 139 138 134 127 120 112 106 106 112 122 126 128 130 129 127 126 124 120 118 120 121 120 118 114 110 105 101 101 100 95 88 77 61 45 38 46 48 44 42 37 33 33 30 23 22 23 21 20 21 20 21 23 21 19 19 20 21 21 20 20 18 17 21 24 22 23 25 25 26 30 32 34 35 32 30
146 145 145 148 152 154 152 150 148 146 145 144 143 141 137 131 123 114 108 112 119 123 125 127 127 126 125 123 123 124 124 123 120 117 111 104 98 95 91 86 79 69 56 47 48 51 47 41 43 42 35 33 32 25 23 24 22 21 21 19 20 20 17 15 16 19 21 20 18 19 18 15 18 23 22 21 24 26 25 23 23 26 29 30 31
149 149 150 152 155 156 155 155 153 152 151 150 149 147 145 142 138 131 123 119 117 116 120 124 126 127 127 127 128 128 126 126 128 123 115 108 100 95 90 83 74 65 56 52 52 53 50 43 41 40 36 34 31 26 25 26 23 23 23 21 20 19 16 15 14 13 17 19 17 16 17 16 15 19 22 22 21 23 26 26 22 20 21 23 27
150 149 152 155 157 158 159 159 157 157 155 154 152 151 147 143 142 142 139 136 131 127 126 127 130 132 132 132 134 134 133 135 137 132 125 119 107 88 50 11 59 70 66 61 57 53 49 45 43 40 36 35 32 28 28 27 25 24 24 21 20 18 15 15 12 5 6 15 16 12 13 16 15 15 20 24 22 19 21 24 25 23 17 15 22
150 151 155 159 161 161 161 160 160 158 157 156 154 149 147 148 149 147 144 143 142 140 136 134 135 137 139 141 142 142 143 146 149 148 144 134 113 340 307 313 69 84 74 68 68 65 54 46 45 44 37 34 33 30 27 28 29 27 23 22 23 19 13 12 9 1 357 6 12 9 8 12 14 15 17 20 22 22 18 16 20 26 19 10 13
152 154 159 163 163 162 161 160 159 157 156 156 153 150 151 154 153 152 151 150 148 146 142 141 142 143 148 153 153 150 149 146 139 141 143 130 75 304 291 284 95 87 81 78 70 64 64 54 45 46 45 36 34 33 29 27 29 26 21 23 24 17 8 6 5 0 356 360 6 6 5 7 11 13 15 16 17 19 18 14 13 18 20 14 14
154 158 162 163 162 161 160 157 154 153 155 156 154 154 158 158 157 158 157 153 152 151 149 150 155 159 162 163 161 160 158 150 145 157 173 183 297 298 260 140 119 105 105 100 79 63 80 70 45 42 46 35 31 35 33 28 28 23 18 19 21 16 9 5 3 1 0 360 1 2 2 3 6 8 9 11 11 12 13 13 12 12 14 17 18
155 159 162 161 159 159 158 154 152 154 159 161 159 159 160 160 161 163 158 155 159 160 157 160 169 173 167 166 170 178 185 192 204 216 225 234 247 240 192 168 175 178 164 162 185 187 130 104 82 54 44 37 31 29 29 26 24 21 15 11 12 15 12 8 5 3 1 1 0 359 358 357 358 1 4 4 5 5 2 4 11 13 11 13 17
154 156 157 158 159 157 153 152 155 160 165 163 160 160 162 163 165 164 160 161 168 169 165 171 181 181 172 171 177 185 194 208 217 216 213 215 223 222 209 202 201 197 205 214 213 209 214 199 168 152 4 22 21 13 18 20 12 11 13 9 7 11 13 10 8 2 358 359 358 356 356 353 348 352 359 357 353 356 357 356 360 7 9 8 7
152 153 154 157 158 154 152 156 161 165 166 164 161 162 164 166 167 166 164 168 173 174 174 181 187 180 174 176 184 195 211 225 219 207 203 207 217 224 222 216 212 211 216 221 222 223 229 225 204 207 233 257 311 320 337 351 344 348 3 5 2 3 5 10 10 0 353 357 358 355 356 353 344 344 352 348 342 347 355 355 351 352 1 8 1
151 153 156 159 158 155 157 162 164 165 165 164 163 165 167 168 170 170 169 171 176 178 182 189 188 176 175 185 198 209 226 248 243 216 210 209 212 220 225 224 224 224 222 223 225 225 228 233 230 226 227 236 253 266 273 288 296 304 327 345 353 354 351 358 7 359 350 354 358 353 350 346 339 337 343 345 342 343 349 352 348 342 345 357 357
152 155 159 160 159 159 161 162 164 167 169 167 167 169 169 171 174 173 172 175 180 183 188 195 188 172 174 191 207 211 219 238 249 236 227 225 221 222 224 226 228 227 225 226 229 227 225 231 235 234 232 232 238 247 259 269 272 277 286 290 296 321 330 335 349 355 351 349 346 343 345 345 340 339 343 344 342 339 339 343 345 341 340 345 348
152 156 159 160 161 163 165 166 168 171 171 170 169 169 172 176 179 177 177 180 185 187 194 201 197 179 173 180 193 203 214 230 240 237 232 232 229 227 230 232 231 228 224 225 229 228 227 229 234 237 239 241 242 245 249 254 257 262 269 272 267 272 283 295 317 336 344 342 335 333 337 340 340 342 346 342 335 334 336 338 340 338 334 333 336
154 157 160 164 166 168 169 172 173 171 171 172 172 171 177 184 185 182 183 185 188 192 200 205 205 196 184 182 190 204 216 225 231 234 234 234 233 233 234 235 233 230 228 229 232 232 231 231 233 237 241 245 248 249 249 249 249 251 257 261 262 262 262 262 271 292 314 325 327 327 329 330 331 337 342 338 332 331 334 335 334 331 328 325 325
160 162 165 170 171 171 173 175 174 171 173 177 177 177 183 190 191 188 190 192 192 197 205 208 208 208 206 202 203 211 219 224 228 231 233 234 235 236 237 237 234 231 230 231 232 233 233 234 236 240 242 244 247 250 252 252 250 248 249 250 252 254 255 252 250 258 274 294 309 317 321 319 317 319 325 328 328 327 324 322 321 318 317 316 315
164 167 170 173 175 175 176 177 175 174 177 182 184 184 187 192 194 192 193 197 199 201 206 211 211 211 215 219 221 223 226 231 234 236 236 236 237 237 237 237 236 234 233 232 233 234 235 234 236 240 242 244 245 247 250 253 254 253 250 247 245 246 245 240 238 246 258 266 277 292 304 309 308 309 314 320 321 317 312 308 308 309 308 305 303
169 171 173 176 178 178 178 178 177 178 181 185 187 189 189 192 196 197 197 200 205 207 211 216 219 218 219 222 226 228 231 234 237 239 240 240 239 238 238 237 236 236 236 236 235 236 237 237 237 239 241 243 245 247 248 250 252 253 253 251 248 245 242 236 233 240 252 256 260 269 279 285 288 291 295 299 303 304 305 304 303 302 301 300 298
175 175 176 180 183 183 182 182 182 184 186 186 188 190 192 194 198 202 202 204 207 212 216 221 224 227 229 230 230 232 234 236 237 240 242 242 241 240 239 237 235 234 236 238 239 240 240 239 239 239 239 240 243 245 247 248 249 250 250 251 251 250 249 246 244 247 252 253 252 259 268 271 272 275 280 282 283 285 289 293 295 296 295 294 291
182 182 181 183 187 188 188 188 188 190 193 192 191 193 197 200 203 206 209 211 213 215 219 222 225 228 231 233 233 234 235 238 240 242 244 245 245 245 243 242 240 237 236 237 240 241 242 241 241 241 241 241 242 243 244 246 247 247 247 247 248 250 253 254 254 255 258 258 255 255 258 261 262 264 268 271 274 275 275 276 280 286 290 289 285
188 190 188 188 190 192 193 193 193 195 197 199 199 199 200 204 208 211 213 215 218 219 220 223 226 228 231 233 235 236 238 240 244 246 247 247 247 246 244 244 242 240 238 239 240 242 243 244 244 244 243 243 244 244 243 243 244 246 247 246 245 246 249 252 255 258 260 261 259 256 255 256 257 258 261 263 265 268 269 270 272 275 279 281 280
Height
815 817 817 818 818 819 820 821 822 824 824 826 827 827 828 829 831 832 832 833 833 833 833 832 832 832 832 832 831 831 831 830 830 829 828 827 826 826 824 823 822 821 820 819 817 816 814 812 810 808 805 803 800 798 795 793 790 788 786 784 781 779 777 773 771 767 764 762 762 760 757 754 752 751 750 749 750 750 749 749 750 751 752 752 754
815 817 817 818 819 820 821 822 823 824 825 827 827 828 830 831 832 833 833 834 834 834 834 834 834 834 833 833 833 832 832 831 831 830 829 828 827 827 826 824 823 822 821 820 819 818 816 814 812 810 808 805 803 800 797 794 792 790 788 786 783 781 779 776 773 770 767 765 764 761 759 757 755 753 752 751 751 751 750 750 749 749 750 750 751
815 817 818 819 820 820 821 822 824 826 826 827 828 830 831 832 833 834 834 835 835 835 835 835 835 834 834 834 834 834 833 833 832 831 831 830 828 828 827 826 825 824 823 823 822 820 819 817 815 813 810 808 805 803 800 797 795 792 790 788 786 783 781 779 776 774 771 769 767 764 761 759 758 756 755 754 753 751 750 750 750 750 749 749 749
816 817 818 820 821 821 822 823 825 826 827 828 830 831 833 833 834 835 835 836 836 836 836 836 836 836 835 836 835 835 835 834 833 833 832 831 830 829 828 827 826 826 825 825 824 823 821 819 818 816 813 811 808 805 803 800 798 795 793 790 788 786 784 782 780 778 775 773 770 769 766 764 762 760 757 755 754 753 752 751 750 750 749 748 747
816 818 819 821 822 823 824 825 826 827 828 829 831 833 834 835 835 836 836 837 837 837 837 837 837 837 836 837 837 837 836 835 834 833 833 832 831 830 829 829 828 827 827 826 826 825 824 822 820 819 816 814 811 809 806 804 801 798 796 793 791 788 786 784 783 781 779 776 774 773 771 768 766 763 761 758 756 755 753 752 751 750 748 746 745
817 819 820 822 823 824 825 826 827 828 829 830 832 834 835 836 836 837 837 838 838 838 839 839 839 839 838 838 838 838 837 836 835 834 834 834 833 832 831 830 830 829 829 828 827 827 826 824 823 821 819 817 815 813 810 807 805 802 799 797 794 791 789 786 785 783 782 780 778 775 773 772 769 767 765 763 761 759 756 753 752 751 749 746 745
818 820 822 823 824 825 825 827 828 829 830 832 834 835 836 837 837 838 838 839 839 839 840 840 840 840 840 840 840 839 838 837 836 835 835 835 835 834 833 832 831 831 830 830 829 828 827 826 825 823 822 820 818 816 814 811 809 806 803 800 798 795 792 790 788 786 785 783 781 778 777 776 774 771 769 766 764 762 760 756 753 751 749 747 746
820 822 823 824 825 825 826 827 828 830 831 833 835 836 837 838 838 839 840 840 840 840 841 841 842 842 842 841 841 840 839 838 837 836 836 837 837 836 835 834 833 833 832 831 830 829 828 827 827 826 824 823 821 819 816 814 812 810 807 804 801 799 796 794 791 789 788 787 785 783 781 779 777 774 771 768 765 763 763 761 758 754 751 749 747
821 823 824 825 826 826 827 828 829 831 833 834 836 837 838 839 840 840 840 841 841 842 842 843 843 843 843 843 842 841 840 840 840 839 838 838 838 838 837 836 835 835 834 833 832 831 830 829 828 827 826 825 823 821 819 816 815 813 811 808 805 803 800 798 796 793 792 790 789 788 785 783 781 778 775 773 772 769 767 764 761 758 754 751 748
822 824 825 827 827 827 828 829 830 832 834 836 837 838 839 840 840 841 841 842 842 843 844 844 844 844 844 844 844 843 842 843 842 842 841 840 840 840 839 838 837 837 836 835 834 833 831 831 830 829 827 826 825 823 821 818 816 815 814 812 810 807 804 802 800 798 796 795 794 792 790 788 786 784 782 780 778 774 770 766 763 760 757 752 749
823 825 826 827 827 828 829 830 831 833 835 837 838 839 840 841 841 842 842 842 843 844 845 846 846 846 846 846 846 845 845 845 844 844 843 842 842 842 841 840 839 839 838 837 835 834 833 832 831 830 829 827 826 825 823 820 818 817 815 814 812 811 809 806 804 802 801 799 798 797 795 793 791 789 786 784 780 777 773 770 767 764 760 756 752
823 825 825 826 828 828 829 830 832 834 835 837 838 839 841 842 842 843 843 844 845 845 847 847 847 847 847 847 848 848 848 847 846 846 845 844 844 843 843 842 841 841 840 838 838 836 835 834 833 831 830 828 827 825 823 822 820 818 817 815 814 814 812 810 808 806 805 803 801 800 798 797 794 791 789 786 783 780 776 773 770 767 764 760 757
824 825 825 826 827 828 830 831 832 834 836 838 839 840 841 842 843 843 844 845 846 847 848 849 848 849 849 849 850 850 850 849 849 848 847 846 846 845 845 845 844 843 842 841 840 839 837 836 835 833 832 829 827 825 823 822 821 820 818 817 816 816 814 812 811 809 808 806 804 803 802 800 797 795 793 789 785 782 778 775 773 770 766 763 761
823 824 825 826 827 829 830 831 833 835 837 839 840 841 842 843 843 844 845 846 848 849 850 850 850 850 850 851 852 852 852 851 851 850 849 848 847 847 847 847 846 845 844 843 842 841 840 839 837 836 834 832 829 827 824 823 823 822 821 819 818 817 816 814 813 812 810 808 807 806 804 802 800 798 795 792 788 784 781 778 776 773 769 766 764
823 824 824 826 827 829 830 832 834 836 838 840 841 842 843 843 843 844 845 848 849 851 851 851 851 851 852 853 853 853 853 853 852 851 850 849 849 848 849 848 847 847 846 845 844 843 842 841 840 838 836 834 832 829 826 825 824 823 822 821 820 818 817 816 814 813 812 810 809 808 805 804 802 799 796 793 790 788 785 783 780 776 772 768 765
823 824 824 825 827 829 830 832 835 836 839 841 842 843 844 844 844 844 846 849 851 852 852 853 853 853 853 854 855 855 855 854 853 852 851 850 849 850 850 849 849 849 848 848 847 845 844 843 841 840 838 836 834 831 829 827 826 825 824 822 821 820 818 816 814 813 813 811 810 809 807 805 803 800 798 795 792 790 787 784 781 777 774 770 768
823 823 824 826 827 829 830 833 836 837 839 841 843 844 845 844 844 845 847 850 852 853 853 854 854 854 855 856 856 856 856 855 855 854 852 851 850 850 851 851 851 851 850 850 849 848 846 845 843 842 840 838 836 834 831 829 828 828 826 825 823 822 820 818 815 814 814 812 811 810 808 806 804 802 800 797 794 792 788 784 782 780 777 774 772
822 823 825 827 828 830 832 834 836 838 840 842 844 845 845 844 844 846 848 851 852 854 854 855 855 856 856 857 858 858 857 857 856 855 854 852 851 851 852 852 852 852 851 851 851 850 849 848 846 844 842 841 839 836 834 832 831 830 829 827 825 823 822 820 818 816 816 814 813 812 810 808 806 804 802 799 797 794 791 789 787 785 782 779 777
821 823 825 827 829 831 833 835 837 839 841 843 844 845 845 845 845 847 849 852 853 854 855 856 857 858 858 859 859 859 859 858 857 856 855 853 852 852 853 853 853 853 853 852 852 852 852 851 849 847 845 843 841 839 837 835 834 833 832 830 828 826 824 823 821 819 818 816 815 813 811 809 808 806 804 801 799 797 795 794 793 789 786 784 782
821 824 825 827 830 832 834 836 838 840 842 843 845 846 846 845 846 848 850 852 854 855 856 857 858 859 860 861 860 860 860 859 858 857 856 855 853 853 854 854 854 854 854 854 854 854 854 853 851 849 848 846 844 842 840 838 837 836 834 832 831 829 826 825 824 822 820 818 817 815 814 812 810 808 806 804 802 800 799 798 796 795 792 790 786
822 824 826 828 830 833 835 837 839 841 842 844 846 847 846 845 847 849 851 853 855 856 857 858 859 860 862 862 861 861 861 860 860 858 857 857 856 855 855 855 855 855 855 855 855 855 855 855 854 852 850 849 847 845 843 841 840 838 836 835 833 831 829 827 825 823 822 820 819 818 816 814 812 810 808 806 805 804 802 801 800 799 797 794 791
823 825 827 829 832 834 836 838 840 842 843 845 847 846 846 846 848 850 852 854 856 857 858 859 860 862 863 863 863 863 862 861 861 860 859 859 858 857 857 857 857 857 857 857 857 857 857 857 856 854 852 851 850 848 846 844 843 841 839 837 835 833 831 829 827 825 823 822 821 820 818 816 815 813 811 809 808 807 806 805 803 802 801 799 796
824 826 828 831 833 835 837 839 840 843 845 847 847 846 846 848 850 852 853 855 857 858 859 860 861 862 863 864 865 865 864 863 862 862 861 861 860 860 859 859 858 858 859 859 859 859 859 859 858 856 854 853 852 851 849 847 845 843 841 839 837 835 833 831 829 827 825 824 822 821 821 819 817 816 814 812 811 810 809 808 807 806 805 803 801
824 827 829 832 833 835 838 840 841 844 846 847 846 846 847 849 851 853 854 856 857 858 859 860 861 862 863 864 865 866 866 865 864 864 864 863 863 862 862 861 860 860 860 861 861 861 861 860 859 858 856 855 854 853 851 849 848 846 844 841 839 837 835 834 832 830 828 826 824 824 823 822 820 819 818 816 814 813 813 811 810 809 808 807 804
824 827 830 832 834 836 838 841 843 845 847 847 846 846 848 850 852 853 854 856 857 858 858 859 860 862 863 864 865 867 867 867 866 866 866 866 865 865 864 864 863 863 862 862 862 862 862 861 860 859 858 857 855 854 853 851 849 848 846 844 842 840 838 836 835 833 831 829 827 826 826 825 824 823 822 820 818 816 815 814 813 813 812 810 808
824 827 830 833 835 838 839 842 844 846 847 847 846 847 849 850 852 853 854 855 857 857 858 859 860 861 863 864 865 867 867 867 867 867 867 867 867 866 866 866 865 864 864 863 863 863 862 861 861 860 859 858 857 856 855 853 851 849 848 846 844 843 841 840 838 836 835 833 831 829 829 828 827 825 824 822 821 819 817 816 815 815 814 813 811
825 827 829 832 836 838 841 843 845 846 847 846 847 849 850 851 852 853 854 856 856 857 858 859 860 861 863 864 865 866 867 867 868 868 868 868 868 867 867 867 866 865 864 864 864 863 863 862 861 861 860 859 857 857 856 855 853 851 850 848 847 845 844 843 841 840 838 837 835 833 832 831 829 827 826 825 824 822 821 819 818 817 817 816 815
825 827 830 832 835 838 842 844 845 846 846 846 847 849 850 851 852 853 854 855 856 857 858 859 860 861 862 864 865 866 867 868 868 868 868 868 868 868 868 867 867 866 866 865 864 864 864 863 862 861 861 860 859 858 857 856 855 854 852 851 849 848 847 846 844 843 842 840 839 837 835 833 832 830 828 827 827 826 824 822 820 819 818 817 816
825 828 831 833 835 839 842 844 845 845 845 846 848 849 850 851 852 854 855 855 855 856 857 858 860 861 862 863 865 866 867 868 868 869 869 869 869 868 868 868 867 867 867 866 865 865 865 864 864 863 862 862 861 860 859 858 857 856 855 853 852 851 849 848 847 846 845 843 842 840 838 836 835 833 831 830 829 828 827 825 823 822 820 819 818
825 828 831 833 836 839 842 844 845 845 846 848 849 850 851 852 854 855 856 857 857 856 857 858 860 861 862 864 864 866 867 869 869 870 870 870 870 869 868 868 868 868 867 866 865 866 866 865 865 864 864 863 862 862 861 860 859 858 857 855 854 853 852 850 849 849 847 846 844 843 841 839 838 836 834 833 831 830 830 829 827 825 823 821 820
825 828 831 834 837 840 842 844 845 846 847 849 850 852 853 855 856 857 858 858 858 859 859 860 861 862 863 865 866 867 868 869 870 871 871 871 870 870 870 869 869 868 868 867 866 867 867 866 866 866 865 865 864 863 862 861 860 859 858 857 856 855 854 853 852 851 850 848 847 845 843 842 840 839 838 836 834 833 831 831 830 828 827 825 824
824 827 831 834 837 840 842 843 845 846 847 849 851 853 855 856 858 859 860 860 860 861 862 863 863 864 865 866 867 869 870 871 871 872 872 872 871 871 871 870 870 869 868 868 867 868 867 867 867 867 866 866 865 865 864 863 862 861 860 859 858 857 856 855 854 853 852 850 849 848 846 844 843 841 840 838 837 835 834 832 831 830 829 828 827
824 826 830 833 837 839 841 843 844 846 847 849 851 853 854 856 858 860 861 862 862 862 863 864 865 866 867 868 869 870 871 872 873 873 873 872 872 872 871 871 870 870 869 868 869 869 868 868 868 868 867 867 866 866 865 864 864 863 862 861 860 859 858 857 856 855 854 852 851 850 848 847 845 843 842 841 839 838 837 835 833 832 831 830 829
824 826 829 833 835 838 840 842 844 845 847 848 850 852 854 856 857 859 860 862 863 864 865 866 867 868 868 869 870 871 872 873 873 873 873 873 872 872 872 871 871 870 869 869 869 869 869 869 869 868 868 868 868 867 866 866 865 864 863 862 861 861 860 859 857 856 855 854 853 852 850 849 847 845 844 843 841 840 839 838 837 835 833 832 830
824 827 830 832 835 837 839 841 843 844 846 847 849 851 853 855 857 858 859 861 863 865 866 868 868 869 869 870 871 872 873 874 874 874 874 873 872 872 871 871 870 870 870 870 870 870 870 870 870 869 869 869 868 868 867 867 866 865 865 864 863 862 861 860 859 858 857 855 855 853 852 851 849 847 846 845 844 843 841 840 839 838 836 835 833
823 827 830 832 834 836 838 840 842 843 845 846 848 850 852 854 856 858 859 861 862 864 866 868 869 870 871 871 872 873 874 874 874 874 874 873 872 872 871 870 870 870 870 871 871 871 871 871 870 870 870 869 869 868 868 867 867 866 866 865 864 863 862 861 860 859 858 857 856 855 853 852 851 849 848 847 846 845 843 842 841 840 839 837 835
823 826 829 831 834 835 837 839 841 843 844 846 848 850 852 854 855 857 858 860 862 863 866 868 869 870 871 872 873 873 874 874 874 874 874 873 872 871 871 870 870 870 871 871 871 871 871 871 871 870 870 870 869 869 868 868 867 867 866 866 865 864 863 862 861 860 859 858 857 856 855 853 852 851 850 848 847 846 845 844 843 841 841 839 837
823 825 828 830 832 835 837 839 840 843 844 846 847 849 851 853 854 856 857 859 861 863 865 866 868 869 871 872 873 873 874 874 874 874 873 873 872 871 871 871 871 871 871 871 871 871 871 871 871 871 870 870 869 869 869 868 868 867 867 866 865 865 864 863 862 861 860 859 857 856 855 854 853 852 851 850 849 848 847 846 844 843 842 841 839
823 825 828 830 832 834 836 838 840 843 844 845 847 849 850 852 854 855 857 859 861 862 863 865 866 867 869 870 872 873 874 874 873 873 873 872 871 871 870 870 871 871 871 871 871 871 871 871 871 871 870 870 870 869 869 868 868 867 867 866 866 865 864 863 862 861 860 859 858 857 856 855 854 853 852 851 850 849 848 847 846 844 843 842 841
822 825 828 830 832 834 836 838 841 842 844 845 846 848 850 852 853 854 856 858 860 861 862 863 864 865 866 868 870 871 871 871 871 871 871 871 871 870 870 870 870 871 871 871 871 871 871 871 870 870 870 870 869 869 869 868 868 868 867 866 866 865 864 864 863 862 861 860 859 858 857 856 855 854 853 852 851 850 849 847 846 845 844 843 842
822 826 829 831 833 835 836 839 840 842 843 845 846 848 850 851 852 854 856 857 859 860 861 862 863 863 865 866 868 869 869 869 869 869 869 870 870 870 869 870 870 870 870 870 870 870 870 870 870 870 870 869 869 869 869 868 868 867 867 867 866 865 865 864 863 862 861 861 860 859 858 857 856 855 854 853 852 851 850 849 847 846 845 844 844
822 826 829 831 833 835 836 838 840 841 843 844 846 848 849 851 852 854 855 857 858 859 860 861 862 862 864 865 867 868 869 868 867 867 867 868 868 868 869 869 869 869 869 869 869 869 870 870 869 869 869 869 869 869 868 868 867 867 867 866 866 865 865 864 863 863 862 861 860 859 858 857 857 855 855 854 853 851 850 850 849 847 846 845 844
823 826 829 831 833 834 836 837 839 841 842 844 845 847 849 850 851 853 854 856 857 858 859 860 861 861 863 865 866 867 868 868 867 866 866 866 867 867 867 868 868 868 868 868 868 869 869 869 869 869 868 868 868 868 867 867 867 866 866 866 865 865 865 864 863 863 862 861 860 860 859 858 857 856 855 854 853 852 851 850 849 849 847 846 845
823 826 828 831 832 834 836 837 838 840 842 843 845 846 848 849 851 852 853 855 857 858 859 859 860 860 862 863 865 866 867 867 866 865 865 865 865 865 866 866 866 866 867 867 867 867 867 868 868 868 867 867 867 867 867 866 866 866 866 865 865 864 864 863 863 862 862 861 860 860 859 858 857 856 855 854 854 853 852 851 850 849 848 847 846
823 825 828 830 831 833 835 836 838 840 841 843 844 846 847 849 850 851 852 854 855 857 858 858 858 859 860 861 863 864 864 864 864 864 863 863 864 864 864 864 864 865 865 865 866 866 866 866 866 866 866 866 866 866 866 865 865 865 864 864 864 863 863 863 862 862 861 861 860 859 859 858 857 856 855 854 854 853 852 851 850 850 849 848 847
822 824 827 829 830 832 834 835 837 839 840 842 843 845 846 848 848 850 851 853 854 855 856 857 857 858 858 859 860 861 861 861 861 861 861 862 862 862 862 862 862 863 863 863 864 864 864 864 865 864 864 864 864 864 864 864 864 863 863 863 863 862 862 862 861 861 860 860 859 859 859 858 857 856 855 854 853 853 852 851 850 849 849 848 847
822 824 826 828 829 831 832 834 835 837 839 841 842 843 845 846 847 848 850 851 852 854 855 855 855 856 856 857 857 858 858 859 859 859 859 859 859 860 860 860 860 861 861 861 862 862 862 862 862 862 862 862 862 862 862 862 862 862 861 861 861 861 861 860 860 860 859 859 859 858 858 857 857 856 855 854 853 853 852 851 850 849 848 847 846
822 824 825 827 828 830 831 832 834 836 837 839 840 842 843 844 845 847 848 850 851 852 853 853 853 853 854 854 855 855 855 856 856 856 856 857 857 857 857 858 858 859 859 859 859 860 860 860 860 860 860 860 860 859 860 860 860 860 859 859 859 859 858 859 859 859 858 858 858 857 857 856 856 855 854 854 853 852 851 850 849 848 848 847 846
822 823 824 826 827 828 830 831 833 834 836 837 839 840 841 843 844 845 846 847 849 850 850 851 851 851 851 852 852 853 853 853 853 854 854 854 854 854 855 855 855 856 856 857 857 857 857 857 857 857 857 857 857 857 857 857 857 857 857 857 857 856 856 856 856 857 857 856 856 856 855 855 854 854 853 853 852 851 850 850 849 848 847 846 845
821 822 824 825 826 828 829 830 832 833 834 835 837 838 840 841 842 843 844 845 846 847 848 848 849 849 849 849 850 850 850 850 851 851 851 852 852 852 852 853 853 853 854 854 854 854 855 855 854 854 854 854 854 854 854 854 854 854 854 854 854 854 854 854 854 854 854 854 854 854 854 853 853 852 852 851 851 850 849 848 848 847 846 845 844
821 822 823 824 825 827 827 829 830 831 833 834 835 836 837 839 840 841 842 842 843 844 845 845 846 846 847 847 847 847 848 848 848 849 849 849 849 849 849 850 850 850 851 851 851 852 852 852 851 851 851 851 850 850 850 850 850 850 850 850 851 851 851 851 851 851 851 852 852 851 851 851 850 850 849 849 849 848 848 847 846 846 845 844 843